カタログに戻る

FENGYUN 1C DEB

運用中PO
NORAD 36996·DEBRIS·🇨🇳 China

打ち上げ May 10, 1999 から Taiyuan Satellite Launch Center

Loading…

次のパス (今後24時間)

TLE

経年Source: Space-Track

元期: Sep 6, 2026, 16:12 UTC

1 36996U 99025ECC 26249.67567427  .00000879  00000-0  36943-3 0  9997
2 36996  98.2544  25.7562 0249464 295.7149  73.3467 14.12882639634748

AllMySatでFENGYUN 1C DEBをリアルタイム追跡

Download on the App Store